This is the latest recevied weather packets stored in our database for station/object W1CAT. If no packets are shown the sender has not sent any weather packets the latest 10 day(s).
| Time | Temp. | Humidity | Pressure | Rain* | Wind** | Luminosity | Snow |
|---|---|---|---|---|---|---|---|
| 1777914667 | 14.44° C | 35% | - | 0 mm | - | - | - |
| 1777914362 | 14.44° C | 36% | - | 0 mm | - | - | - |
| 1777914060 | 13.89° C | 35% | - | 0 mm | - | - | - |
| 1777913756 | 13.33° C | 36% | - | 0 mm | - | - | - |
| 1777913453 | 13.89° C | 36% | - | 0 mm | - | - | - |
| 1777913149 | 13.89° C | 35% | - | 0 mm | - | - | - |
| 1777912846 | 15.56° C | 34% | - | 0 mm | - | - | - |
| 1777912543 | 16.11° C | 35% | - | 0 mm | - | - | - |
| 1777912239 | 15° C | 37% | - | 0 mm | - | - | - |
| 1777911935 | 15.56° C | 36% | - | 0 mm | - | - | - |
| 1777911631 | 15° C | 36% | - | 0 mm | - | - | - |
| 1777911327 | 15° C | 37% | - | 0 mm | - | - | - |
| 1777911026 | 13.89° C | 38% | - | 0 mm | - | - | - |
| 1777910724 | 13.89° C | 37% | - | 0 mm | - | - | - |
| 1777910420 | 12.78° C | 39% | - | 0 mm | - | - | - |
| 1777910116 | 12.22° C | 41% | - | 0 mm | - | - | - |
| 1777909814 | 13.33° C | 39% | - | 0 mm | - | - | - |
| 1777909510 | 13.89° C | 39% | - | 0 mm | - | - | - |
| 1777909208 | 12.78° C | 41% | - | 0 mm | - | - | - |
| 1777908906 | 12.78° C | 44% | - | 0 mm | - | - | - |
| 1777908603 | 10.56° C | 46% | - | 0 mm | - | - | - |
| 1777908299 | 10.56° C | 47% | - | 0 mm | - | - | - |
| 1777907996 | 10° C | 49% | - | 0 mm | - | - | - |
| 1777907691 | 10.56° C | 49% | - | 0 mm | - | - | - |
| 1777907387 | 10.56° C | 47% | - | 0 mm | - | - | - |
* Rain latest hour (hover to see other rain measurements)
** Current wind speed in m/s (hover to see current wind gust speed)